{"data":{"norad_id":58376,"epoch":"2026-05-25T00:57:09.630720Z","epoch_age_seconds":74734,"freshness":"FRESH","line1":"1 58376U 23178C   26145.03969480  .00001041  00000+0  41944-4 0  9998","line2":"2 58376  53.1592   5.5381 0000944  78.8793 281.2315 15.34395727141595","mean_motion":15.34395727,"eccentricity":9.44e-5,"inclination_deg":53.1592,"raan_deg":5.5381,"arg_perigee_deg":78.8793,"mean_anomaly_deg":281.2315,"bstar":4.1944e-5,"rev_number":14159,"period_min":93.848019429475,"perigee_km":462.07016397549,"apogee_km":463.36171701065,"semimajor_km":6840.8529404931,"source":"CELESTRAK","updated_at":"2026-05-25T13:38:18.611832Z"}}